Location: Schommer Observatory
(40.5200°N, 74.4500°W)
Time: 10:16:38
(UTC-05:00)

Envisat - Pass Details

Date: 16 November 2018
Orbit: 764 x 766 km, 98.2° (Epoch: 11 December)

Event Time Altitude Azimuth Distance (km) Brightness Sun altitude
Rises 19:51:51 0° 199° (SSW) 3,218 6.4 -36.5°
Enters shadow 19:53:05 - 205° (SSW) 2,785 6.1 -36.7°
Exits shadow 19:57:03 20° 241° (WSW) 1,704 5.2 -37.5°
Maximum altitude 19:58:35 23° 266° (W) 1,579 5.1 -37.8°
Drops below altitude 10° 20:02:36 10° 319° (NW) 2,310 5.9 -38.5°
Sets 20:05:23 0° 333° (NNW) 3,241 6.6 -39.1°
